Location: Anna District 4 Election Precinct
(37.4833°N, 89.2195°W)
Time: 14:20:37
(UTC+00:00)

Okean O Rocket - Pass Details

Date: 29 October 2020
Orbit: 623 x 644 km, 98.2° (Epoch: 03 December)

Event Time Altitude Azimuth Distance (km) Brightness Sun altitude
Rises 23:48:55 0° 180° (S) 2,907 5.1 -10.0°
Reaches altitude 10° 23:51:10 10° 186° (S) 2,001 4.4 -10.5°
Maximum altitude 23:55:22 47° 260° (W) 831 2.8 -11.3°
Drops below altitude 10° 23:59:35 10° 335° (NNW) 2,005 4.4 -12.1°
Sets 00:01:50 0° 341° (NNW) 2,914 5.2 -12.5°
